Current weather by "City, St" or "zip code"  
 

Current Conditions: Deer Park, Deer Park Airport, WA

Fair


54.0 F

Last Updated on Oct 29 2020, 2:53 pm PDT
Humidity: 57%
Wind Speed: N 0.0 mph
Barometer 30.08 in
Dewpoint: 39.0 F
Visibility: 10.00 mi
Precip: --
Heat Index: NA
Wind Chill: NA
Current conditions at:

Deer Park, Deer Park Airport, WA (KDEW)

Lat: 47.97417 Lon: 117.42833

Local Radar Image active severe weather and emergency alerts image image weather storm and storm spotter reports image weather observation monitoring service image
Local
Radar
Active
Alerts
Storm Reports Obs
Monitoring

Sign-up For Email & Text Message Weather Alert Notification Services



Advertise Here

Observation History for Deer Park, Deer Park Airport, WA


Time Wind
(mph)
Vis
(mi)
Weather Precip (in) Temperature (F) Relative
Humidity
Wind
Chill
(F)
Heat
Index
(F)
Pressure
Air Dwpt altimeter
(in)
sea level
(mb)
Rmks
2:53 pm PDT N 0.0 10.00 Fair -- 54.0 39.0 57% NA NA 30.08 1019.7
1:53 pm PDT SW 3.5 10.00 Fair -- 53.0 37.9 57% NA NA 30.10 1020.3
12:53 pm PDT SE 3.5 10.00 Fair -- 51.0 37.0 59% NA NA 30.12 1021.0
11:53 am PDT S 3.5 10.00 Fair -- 48.0 36.0 63% NA NA 30.13 1021.6
10:53 am PDT N 0.0 10.00 Fair -- 44.0 36.0 73% NA NA 30.14 1022.0
9:53 am PDT N 0.0 10.00 Fair -- 41.0 35.1 79% NA NA 30.14 1022.2
8:53 am PDT N 0.0 6.00 Fog/Mist -- 34.0 30.9 89% NA NA 30.13 1022.1
7:53 am PDT 7.00 Fair -- 28.0 25.0 88% NA NA 30.12 1022.1
6:53 am PDT NW 3.5 6.00 Fog/Mist -- 29.0 26.1 89% NA NA 30.11 1021.8
5:53 am PDT NE 4.6 10.00 Fair -- 31.0 28.9 92% 26 NA 30.11 1021.3
4:53 am PDT N 0.0 9.00 Fair -- 32.0 28.9 88% NA NA 30.10 1020.8
3:53 am PDT N 0.0 9.00 Fair -- 31.0 28.0 89% NA NA 30.09 1020.4
2:53 am PDT N 3.5 10.00 Fair -- 32.0 28.9 88% NA NA 30.10 1020.7
1:53 am PDT N 0.0 10.00 Fair -- 34.0 30.9 89% NA NA 30.10 1020.6
12:53 am PDT NE 4.6 10.00 Fair -- 34.0 30.9 89% 30 NA 30.11 1021.1
10:53 pm PDT N 0.0 9.00 Fair -- 31.0 28.0 89% NA NA 30.12 1021.7
9:53 pm PDT N 0.0 10.00 Fair -- 31.0 28.0 89% NA NA 30.12 1022.0
8:53 pm PDT NW 4.6 10.00 Fair -- 35.0 30.9 85% 31 NA 30.13 1022.3
7:53 pm PDT NW 3.5 10.00 Fair -- 32.0 28.9 88% NA NA 30.14 1023.0
6:53 pm PDT N 0.0 10.00 Fair -- 33.0 28.9 85% NA NA 30.14 1023.0
5:53 pm PDT N 3.5 10.00 Fair -- 38.0 30.9 76% NA NA 30.14 1022.9
4:53 pm PDT N 5.8 10.00 Fair -- 45.0 34.0 66% 42 NA 30.16 1022.9
3:53 pm PDT SW 4.6 10.00 Fair -- 48.0 35.1 61% 46 NA 30.17 1023.2

Regional Weather Observation


Spokane, Felts Field, WA (KSFF)

Fair
61.0 F

Fairchild Air Force Base, WA (KSKA)

Fair
59.0 F

Spokane, Spokane International Airport, WA (KGEG)

A Few Clouds
58.0 F

Sandpoint, Sandpoint Airport, ID (KSZT)

Fair
59.0 F

Coeur dAlene Airport - Pappy Boyington Field, ID (KCOE)

Fair
59.0 F

Boundary County Airport, ID (K65S)

Fair
57.0 F